Change the Weather History Date:

Sunday, March 16, 2014

  Actual Average Record
Temperature  
Mean Temperature 44 °F -  
Max Temperature 53 °F 62 °F 80 °F (1980)
Min Temperature 30 °F 36 °F 17 °F (1962)
Degree Days  
Heating Degree Days 21    
Moisture  
Dew Point 39 °F    
Average Humidity 91    
Maximum Humidity 100    
Minimum Humidity 60    
Precipitation  
Precipitation 0.82 in - - ()
Sea Level Pressure  
Sea Level Pressure 29.99 in    
Wind  
Wind Speed 11 mph (North)    
Max Wind Speed 26 mph    
Max Gust Speed 40 mph    
Visibility 6 miles    
Events Rain , Snow    
Averages and records for this station are not official NWS values.
T = Trace of Precipitation, MM = Missing Value Source: NWS Daily Summary

Daily Weather History Graph

Daily Weather History Graph

Search for Another Location

Airport or City:

Trip Planner

Search our weather history database for the weather conditions in past years. The results will help you decide how hot, cold, wet, or windy it might be!

Date:

Astronomy

Mar. 16, 2014 Rise Set
Actual Time 7:33 AM CDT 7:32 PM CDT
Civil Twilight 7:07 AM CDT 7:58 PM CDT
Nautical Twilight 6:37 AM CDT 8:28 PM CDT
Astronomical Twilight 6:07 AM CDT 8:58 PM CDT
Moon 7:49 PM CDT (3/16) 7:18 AM CDT (3/16)
Length of Visible Light 12h 50m
Length of Day
11h 58m
Full, 100% of the Moon is Illuminated
Mar 16
Full
Mar 16
Full
Mar 23
Last Quarter
Mar 30
New
Apr 7
First Quarter

Hourly Weather History & Observations

Time (CDT) Temp. Windchill Dew Point Humidity Pressure Visibility Wind Dir Wind Speed Gust Speed Precip Events Conditions
12:00 AM 54.0 °F - 52.0 °F 93% 29.82 in 10.0 mi Calm Calm - N/A   Overcast
12:08 AM 54.0 °F - 52.0 °F 93% 29.82 in 10.0 mi Calm Calm - N/A   Overcast
12:53 AM 53.1 °F - 51.1 °F 93% 29.80 in 7.0 mi North 4.6 mph - 0.00 in Rain Light Rain
1:13 AM 53.1 °F - 51.1 °F 93% 29.82 in 5.0 mi North 10.4 mph - 0.03 in Rain Light Rain
1:27 AM 53.1 °F - 51.1 °F 93% 29.81 in 5.0 mi North 12.7 mph - 0.05 in Rain Rain
1:53 AM 52.0 °F - 52.0 °F 100% 29.80 in 4.0 mi North 8.1 mph - 0.12 in Rain Rain
2:01 AM 52.0 °F - 52.0 °F 100% 29.82 in 2.5 mi Variable 6.9 mph 18.4 mph 0.04 in Rain Rain
2:07 AM 52.0 °F - 52.0 °F 100% 29.82 in 3.0 mi Variable 5.8 mph - 0.06 in Rain Rain
2:14 AM 52.0 °F - - N/A% 29.82 in 4.0 mi North 6.9 mph - 0.08 in Rain Rain
2:34 AM 52.0 °F - - N/A% 29.83 in 4.0 mi North 9.2 mph - 0.13 in Rain Rain
2:53 AM 52.0 °F - 52.0 °F 100% 29.82 in 4.0 mi North 11.5 mph 18.4 mph 0.21 in Rain Heavy Rain
3:34 AM 48.9 °F - 48.9 °F 100% 29.84 in 2.5 mi North 10.4 mph 21.9 mph 0.16 in Rain Rain
3:43 AM 48.9 °F - 48.9 °F 100% 29.83 in 4.0 mi NNW 8.1 mph 24.2 mph 0.18 in Rain Light Rain
3:53 AM 48.9 °F - 48.9 °F 100% 29.82 in 5.0 mi NNW 10.4 mph 23.0 mph 0.19 in Rain Light Rain
4:12 AM 46.9 °F - 46.9 °F 100% 29.84 in 4.0 mi NNW 12.7 mph 25.3 mph 0.03 in Rain Light Rain
4:53 AM 44.1 °F 36.5 °F 44.1 °F 100% 29.86 in 5.0 mi North 17.3 mph 29.9 mph 0.11 in Rain Rain
5:36 AM 39.9 °F 29.2 °F 39.9 °F 100% 29.91 in 7.0 mi North 25.3 mph 39.1 mph 0.05 in Rain Light Rain
5:53 AM 39.0 °F 27.8 °F 37.9 °F 96% 29.91 in 7.0 mi North 26.5 mph 40.3 mph 0.06 in Rain Light Rain
6:53 AM 36.0 °F 24.7 °F 36.0 °F 100% 29.95 in 8.0 mi North 21.9 mph 35.7 mph 0.03 in   Overcast
7:53 AM 36.0 °F 25.0 °F 36.0 °F 100% 29.99 in 7.0 mi North 20.7 mph 33.4 mph 0.02 in   Overcast
8:53 AM 34.0 °F 21.3 °F 34.0 °F 100% 30.03 in 5.0 mi North 25.3 mph 36.8 mph 0.04 in Snow Light Snow
9:08 AM 34.0 °F 22.7 °F 34.0 °F 100% 30.04 in 2.5 mi North 19.6 mph 31.1 mph 0.01 in Snow Light Snow
9:14 AM 34.0 °F 23.4 °F 34.0 °F 100% 30.05 in 3.0 mi North 17.3 mph 29.9 mph 0.01 in Snow Light Snow
9:53 AM 34.0 °F 23.4 °F 34.0 °F 100% 30.07 in 3.0 mi North 17.3 mph 33.4 mph 0.02 in Snow Light Snow
10:07 AM 35.1 °F 23.0 °F 35.1 °F 100% 30.08 in 8.0 mi North 24.2 mph 32.2 mph 0.00 in   Overcast
10:53 AM 36.0 °F 25.3 °F 36.0 °F 100% 30.11 in 10.0 mi North 19.6 mph 32.2 mph 0.00 in   Overcast
11:53 AM 35.1 °F 23.5 °F 35.1 °F 100% 30.14 in 5.0 mi North 21.9 mph 34.5 mph 0.00 in Snow Light Snow
12:33 PM 34.0 °F 22.1 °F 34.0 °F 100% 30.15 in 2.0 mi North 21.9 mph 31.1 mph 0.01 in Snow Light Snow
12:53 PM 35.1 °F 24.5 °F 35.1 °F 100% 30.15 in 2.0 mi North 18.4 mph 28.8 mph 0.01 in Snow Light Snow
1:09 PM 35.1 °F 23.5 °F 35.1 °F 100% 30.15 in 4.0 mi North 21.9 mph 29.9 mph 0.00 in   Overcast
1:53 PM 35.1 °F 22.7 °F 34.0 °F 96% 30.14 in 10.0 mi North 25.3 mph 33.4 mph 0.01 in   Overcast
2:53 PM 37.0 °F 26.4 °F 34.0 °F 89% 30.11 in 10.0 mi North 20.7 mph 32.2 mph N/A   Overcast
3:53 PM 39.9 °F 29.5 °F 33.1 °F 77% 30.10 in 10.0 mi NNE 24.2 mph 32.2 mph N/A   Mostly Cloudy
4:53 PM 39.9 °F 30.8 °F 30.0 °F 68% 30.12 in 10.0 mi North 18.4 mph 29.9 mph N/A   Overcast
5:00 PM 42.1 °F 33.3 °F 30.9 °F 65% 30.11 in 10.0 mi North 19.6 mph 26.5 mph N/A   Mostly Cloudy
5:53 PM 43.0 °F 35.4 °F 30.0 °F 60% 30.11 in 10.0 mi North 16.1 mph 24.2 mph N/A   Clear
6:53 PM 39.9 °F 31.8 °F 28.9 °F 65% 30.12 in 10.0 mi North 15.0 mph 23.0 mph N/A   Clear
7:53 PM 37.9 °F 30.5 °F 27.0 °F 65% 30.12 in 10.0 mi North 11.5 mph - N/A   Clear
8:53 PM 36.0 °F 29.6 °F 27.0 °F 70% 30.13 in 10.0 mi North 8.1 mph - N/A   Clear
9:53 PM 34.0 °F 25.5 °F 25.0 °F 70% 30.13 in 10.0 mi NNE 11.5 mph - N/A   Clear
10:53 PM 34.0 °F 28.0 °F 24.1 °F 67% 30.15 in 10.0 mi North 6.9 mph - N/A   Clear
11:53 PM 30.9 °F 24.3 °F 24.1 °F 76% 30.14 in 10.0 mi North 6.9 mph - N/A   Clear